FW2558 Weather Reports


time (UTC)temp
F
wind
direction
speed
knots
gust
knots
rain 1hr
in
rain 24hr
in
rain mn
in
humidity
%
barometer
mb
20260504151025 76 113 7.0 16.5 0.00 2.50 0.00 68 1014.0
20260504150529 76 134 8.7 15.6 0.00 2.50 0.00 67 1014.1
20260504141108 75 110 7.8 13.9 0.00 2.50 0.00 67 1013.4
20260504140507 75 110 7.8 13.9 0.00 2.50 0.00 67 1013.5
20260504130548 71 99 7.8 14.8 0.00 2.50 0.00 77 1013.1
20260504110520 67 107 6.1 12.2 0.00 2.50 0.00 83 1012.0
20260504100517 67 132 6.1 12.2 0.00 2.50 0.00 85 1011.6
20260504082006 66 119 5.2 10.4 0.00 2.50 0.00 86 1011.8
20260504081504 66 126 2.6 13.9 0.00 2.50 0.00 86 1011.8
20260504081003 66 163 5.2 10.4 0.00 2.50 0.00 86 1011.8
20260504080503 66 124 4.3 12.2 0.00 2.50 0.00 86 1011.9
20260504050537 67 92 7.0 12.2 0.02 2.50 2.50 86 1014.3
20260504045539 67 115 7.0 13.0 0.03 2.50 2.50 87 1014.4
20260504045040 67 122 3.5 9.6 0.04 2.50 2.50 87 1014.5
20260504044536 67 96 5.2 10.4 0.04 2.50 2.50 87 1014.7
20260504044036 66 114 6.1 10.4 0.04 2.50 2.50 88 1014.6
20260504043536 66 138 5.2 8.7 0.05 2.50 2.50 89 1014.7
20260504043036 66 121 4.3 8.7 0.04 2.49 2.49 89 1014.8
20260504042536 66 100 4.3 8.7 0.05 2.49 2.49 89 1014.9
20260504042036 66 108 3.5 7.8 0.05 2.49 2.49 91 1014.9
20260504041535 66 111 0.9 3.5 0.05 2.49 2.49 92 1015.1
20260504041034 66 90 0.9 2.6 0.04 2.48 2.48 91 1015.1
20260504040535 66 86 0.9 2.6 0.05 2.48 2.48 91 1015.1
20260504040034 66 76 0.9 2.6 0.05 2.47 2.47 91 1015.2
20260504035536 66 65 0.9 2.6 0.05 2.47 2.47 91 1015.2
20260504035035 66 61 0.0 2.6 0.06 2.46 2.46 91 1015.2
20260504034535 66 86 0.0 2.6 0.06 2.46 2.46 91 1015.3
20260504034034 66 82 0.9 6.1 0.07 2.46 2.46 91 1015.4
20260504033534 66 57 0.9 6.1 0.06 2.45 2.45 91 1015.3
20260504033038 66 50 0.9 6.1 0.07 2.45 2.45 91 1015.2
20260504032533 66 56 2.6 7.0 0.06 2.44 2.44 90 1015.3
20260504032038 66 115 2.6 7.8 0.07 2.44 2.44 90 1015.2
20260504031533 66 71 4.3 7.8 0.07 2.44 2.44 90 1015.2
20260504031032 66 71 1.7 7.0 0.08 2.44 2.44 90 1015.2
20260504030534 66 84 3.5 7.0 0.07 2.43 2.43 90 1015.1
20260504030032 66 69 3.5 7.8 0.06 2.42 2.42 90 1015.1
20260504025533 66 96 4.3 7.8 0.06 2.42 2.42 90 1015.0
20260504025033 66 78 3.5 7.8 0.05 2.40 2.40 90 1015.0
20260504024532 66 110 4.3 7.0 0.05 2.40 2.40 89 1015.1
20260504024032 66 95 1.7 5.2 0.05 2.39 2.39 89 1015.0
20260504023531 66 80 1.7 7.0 0.05 2.39 2.39 89 1014.9
20260504023031 66 111 3.5 7.8 0.05 2.38 2.38 89 1014.7
20260504022531 66 119 5.2 7.8 0.05 2.38 2.38 89 1014.6
20260504022030 66 123 4.3 9.6 0.05 2.37 2.37 89 1014.5
20260504021531 66 123 4.3 9.6 0.05 2.37 2.37 90 1014.5
20260504021030 66 115 4.3 7.8 0.05 2.36 2.36 90 1014.4
20260504020531 66 110 1.7 6.1 0.06 2.36 2.36 90 1014.3
20260504020031 66 109 3.5 7.8 0.06 2.36 2.36 89 1014.3
20260504015530 67 119 1.7 8.7 0.07 2.36 2.36 89 1014.2
20260504015035 66 105 4.3 7.8 0.07 2.35 2.35 89 1014.1
20260504014541 66 77 3.5 7.8 0.06 2.34 2.34 90 1014.1
20260504014032 66 120 4.3 7.8 0.07 2.34 2.34 91 1013.9
20260504013630 66 106 5.2 7.8 0.07 2.34 2.34 91 1014.0
20260504013032 66 132 3.5 7.0 0.07 2.33 2.33 91 1013.9
20260504012532 66 148 4.3 7.0 0.07 2.33 2.33 91 1014.0
20260504012029 66 94 2.6 7.0 0.06 2.31 2.31 91 1014.0
20260504011529 66 175 1.7 7.0 0.07 2.31 2.31 91 1014.0
20260504011027 67 126 2.6 6.1 0.07 2.31 2.31 91 1013.9
20260504010527 67 123 4.3 7.8 0.06 2.29 2.29 90 1013.9
20260504010027 67 115 5.2 7.8 0.06 2.29 2.29 91 1013.9
20260504005528 67 104 4.3 7.0 0.06 2.29 2.29 92 1013.9
20260504005031 67 138 0.9 3.5 0.05 2.27 2.27 93 1013.9
20260504004527 67 120 0.0 0.0 0.05 2.27 2.27 93 1013.8
20260504004028 67 120 0.0 0.0 0.04 2.27 2.27 93 1013.7
20260504003526 67 90 0.0 0.0 0.04 2.25 2.25 93 1013.6
20260504003026 67 92 0.0 0.0 0.04 2.25 2.25 93 1013.6
20260504002526 66 99 0.0 0.0 0.05 2.25 2.25 93 1013.5
20260504002026 66 94 0.0 0.0 0.06 2.25 2.25 93 1013.6
20260504001526 66 113 0.0 0.0 0.06 2.25 2.25 93 1013.6
20260504001026 66 79 0.0 0.0 0.06 2.24 2.24 93 1013.6
20260504000524 66 338 0.0 1.7 0.07 2.24 2.24 93 1013.6
20260504000038 66 303 0.0 2.6 0.07 2.25 2.24 93 1013.5
20260503235524 66 302 0.9 2.6 0.10 2.24 2.23 93 1013.5
20260503235025 66 252 0.0 1.7 0.11 2.24 2.23 93 1013.4
20260503234524 66 292 0.0 2.6 0.11 2.24 2.23 93 1013.3
20260503234024 66 313 0.9 2.6 0.11 2.24 2.23 93 1013.2
20260503233523 66 266 0.9 1.7 0.10 2.23 2.22 93 1013.1
20260503233025 66 228 0.0 1.7 0.10 2.23 2.22 93 1013.1
20260503232523 66 227 0.9 1.7 0.09 2.22 2.21 93 1013.0
20260503232023 67 223 0.0 2.6 0.08 2.21 2.20 93 1012.9
20260503231523 67 240 0.9 2.6 0.06 2.19 2.19 93 1013.0
20260503231023 67 227 0.9 2.6 0.06 2.19 2.18 93 1013.0
20260503230524 67 252 0.0 3.5 0.05 2.18 2.17 93 1012.9
20260503230024 67 298 1.7 3.5 0.05 2.19 2.17 93 1012.9
20260503225525 66 261 0.0 2.6 0.01 2.15 2.13 92 1012.9
20260503225022 67 215 0.0 3.5 0.01 2.14 2.12 92 1012.7
20260503224526 67 205 0.9 3.5 0.01 2.14 2.12 93 1012.7
20260503224026 67 219 0.9 2.6 0.04 2.14 2.12 93 1012.5
20260503223522 67 202 0.0 2.6 0.11 2.14 2.12 92 1012.6
20260503223021 67 211 0.0 3.5 0.17 2.14 2.12 93 1012.5
20260503222521 67 217 1.7 3.5 0.27 2.14 2.12 93 1012.3
20260503222021 66 182 0.9 2.6 0.30 2.14 2.12 93 1012.2
20260503221521 66 36 0.0 0.9 0.50 2.14 2.12 93 1012.1
20260503221021 66 36 0.0 1.7 0.81 2.14 2.12 93 1012.1
20260503220521 66 40 0.0 1.7 1.13 2.14 2.12 93 1012.1
20260503220024 66 355 0.0 1.7 1.46 2.15 2.12 93 1012.3
20260503215521 65 355 0.0 2.6 1.66 2.15 2.12 92 1012.4
20260503215020 65 101 0.9 3.5 1.82 2.14 2.11 92 1012.6
20260503214529 65 19 0.9 3.5 1.86 2.14 2.11 92 1012.5
20260503214019 65 23 0.9 4.3 1.82 2.09 2.06 91 1012.4
20260503213519 65 51 0.9 7.0 1.76 2.02 2.00 91 1012.3
20260503213021 66 80 2.6 7.0 1.70 1.97 1.94 91 1012.4
20260503212521 66 9 2.6 7.0 1.62 1.87 1.84 92 1012.3
20260503212018 66 333 1.7 13.0 1.62 1.83 1.80 92 1012.4
20260503211517 66 276 7.0 13.0 1.42 1.61 1.58 91 1012.5
20260503211017 66 307 5.2 9.6 1.15 1.30 1.27 89 1012.4
20260503210517 68 332 2.6 6.1 0.93 0.97 0.94 88 1012.4
20260503210037 68 290 0.9 5.2 0.62 0.65 0.62 87 1012.2
20260503205519 69 302 1.7 5.2 0.44 0.47 0.44 88 1012.3
20260503205016 70 5 0.0 5.2 0.27 0.30 0.27 88 1012.3
20260503204615 70 51 0.9 5.2 0.25 0.28 0.25 89 1012.1
20260503204018 70 53 0.0 3.5 0.24 0.27 0.24 89 1012.1
20260503203514 70 41 0.0 3.5 0.24 0.27 0.24 88 1012.2
20260503203015 70 24 0.0 3.5 0.23 0.26 0.23 88 1012.0
20260503202513 71 360 1.7 3.5 0.22 0.25 0.22 87 1012.1
20260503202013 71 337 0.0 6.1 0.17 0.20 0.17 86 1012.0
20260503201513 72 310 2.6 6.1 0.16 0.19 0.16 84 1011.9
20260503201012 73 340 2.6 6.1 0.08 0.11 0.08 80 1011.9
20260503200512 74 333 0.9 9.6 0.00 0.03 0.00 77 1011.9
20260503200015 74 264 1.7 9.6 0.00 0.03 0.00 74 1012.0
20260503195511 75 280 2.6 12.2 0.00 0.03 0.00 74 1012.0
20260503195011 75 323 4.3 12.2 0.00 0.03 0.00 71 1012.0
20260503194512 77 313 6.1 12.2 0.00 0.03 0.00 70 1012.1
20260503194012 77 323 5.2 13.0 0.00 0.03 0.00 68 1012.1
20260503193510 78 279 5.2 13.0 0.00 0.03 0.00 66 1012.1
20260503193109 79 243 4.3 10.4 0.00 0.03 0.00 63 1012.2
20260503192508 80 288 2.6 12.2 0.00 0.03 0.00 61 1012.1
20260503192008 80 236 5.2 12.2 0.00 0.03 0.00 59 1012.1
20260503191508 81 213 2.6 7.8 0.00 0.03 0.00 55 1012.1
20260503191108 81 313 1.7 7.8 0.00 0.03 0.00 56 1012.2
20260503190507 81 298 0.9 7.0 0.00 0.03 0.00 54 1012.3
20260503190006 81 306 0.9 5.2 0.00 0.03 0.00 54 1012.4
20260503185506 82 302 1.7 7.0 0.00 0.03 0.00 54 1012.5
20260503185009 82 232 1.7 5.2 0.00 0.03 0.00 54 1012.5
20260503184505 82 263 0.9 5.2 0.00 0.03 0.00 55 1012.5
20260503184006 82 180 0.0 7.8 0.00 0.03 0.00 55 1012.7
20260503183504 82 215 3.5 7.8 0.00 0.03 0.00 53 1012.8
20260503183003 83 304 1.7 10.4 0.00 0.03 0.00 54 1012.7
20260503182501 82 97 0.9 8.7 0.00 0.03 0.00 55 1012.9
20260503182100 82 252 2.6 8.7 0.00 0.03 0.00 55 1012.9
20260503181559 82 235 2.6 8.7 0.00 0.03 0.00 56 1013.1
20260503181501 82 289 1.7 6.1 0.00 0.03 0.00 55 1013.1
20260503181059 81 219 0.9 4.3 0.00 0.03 0.00 57 1013.4
20260503180558 81 319 1.7 6.1 0.00 0.03 0.00 56 1013.5
20260503180107 82 58 2.6 6.1 0.00 0.03 0.00 55 1013.7
20260503175557 82 103 0.0 5.2 0.00 0.03 0.00 54 1013.9
20260503175056 82 36 1.7 7.8 0.00 0.03 0.00 53 1014.0
20260503174556 82 5 2.6 7.8 0.00 0.03 0.00 53 1014.2
20260503174055 82 155 1.7 5.2 0.00 0.03 0.00 55 1014.2
20260503173553 81 143 1.7 5.2 0.00 0.03 0.00 56 1014.2
20260503173142 81 212 2.6 5.2 0.00 0.03 0.00 56 1014.4
20260503172550 81 141 2.6 6.1 0.00 0.03 0.00 56 1014.5
20260503172050 80 216 3.5 7.8 0.00 0.03 0.00 57 1014.5
20260503171550 80 154 2.6 8.7 0.00 0.03 0.00 59 1014.5
20260503171048 79 70 4.3 8.7 0.00 0.03 0.00 60 1014.6
20260503170548 78 141 2.6 8.7 0.00 0.03 0.00 59 1014.7